Probability
3 4 4 4 3 2 0 0 1 0 0 0 1 2 5 7 3 0 1 0 0 0 0 0 0 0 0 0 0 0 0 0 0 0 0 0 0 0
4 4 5 5 4 3 1 1 1 1 1 1 2 5 8 6 2 0 1 0 0 0 0 0 0 0 0 0 0 0 0 0 0 0 0 0 0 0
6 6 5 5 5 4 2 1 2 2 2 2 5 13 17 13 7 3 1 0 0 0 0 0 0 0 0 0 0 0 0 0 0 0 0 0 0 0
8 7 6 6 6 5 3 2 2 3 3 3 6 16 24 23 17 10 3 1 0 0 0 0 0 0 0 0 0 0 0 0 0 0 0 0 0 0
8 9 10 11 11 9 6 5 6 6 6 6 6 13 22 25 25 17 7 3 2 0 0 0 0 0 0 0 0 0 0 0 0 0 0 0 0 0
7 9 12 15 14 11 9 11 12 12 11 12 11 12 16 22 25 19 10 7 6 4 3 1 0 0 0 0 0 0 0 0 0 0 0 0 0 0
7 8 9 10 9 8 8 11 13 13 12 13 12 10 11 17 19 15 11 11 11 10 8 5 2 1 0 0 0 0 0 0 0 0 0 0 0 0
8 8 7 4 3 2 3 4 6 6 8 8 7 6 7 11 13 11 10 10 9 10 10 6 4 3 2 1 0 0 0 0 0 0 0 0 0 0
8 9 7 3 2 2 1 1 1 2 3 3 3 3 4 7 9 8 8 8 7 9 9 5 3 5 4 1 0 0 0 0 0 0 0 0 0 0
5 5 5 4 2 2 2 2 2 2 1 1 1 2 3 4 6 6 6 6 7 9 9 5 3 5 4 2 1 0 0 0 0 0 0 0 0 0
2 3 3 3 1 1 1 2 3 3 2 0 0 0 1 2 3 4 4 4 4 7 9 7 4 5 5 2 1 0 0 0 0 0 0 0 0 0
2 1 1 1 0 0 0 1 2 2 1 0 0 0 0 1 1 2 3 2 1 3 7 7 5 5 4 2 1 1 0 0 0 0 0 0 0 0
1 1 0 0 0 0 0 0 1 1 0 0 0 0 0 1 2 2 2 2 2 3 5 5 4 4 3 2 2 3 1 0 0 0 0 0 0 0
0 0 0 0 0 0 0 0 0 0 0 0 0 0 0 1 1 1 2 3 3 3 3 3 3 3 3 3 3 2 1 0 0 0 0 0 0 0
0 0 0 0 0 0 0 0 0 0 0 0 0 0 0 0 0 1 2 2 2 2 2 2 2 2 2 2 2 1 0 0 0 0 0 0 0 0
0 0 0 0 0 0 0 0 0 0 0 0 0 0 0 0 0 1 1 1 0 0 1 2 2 2 1 1 1 0 0 0 0 0 0 0 0 0
0 0 0 0 0 0 0 0 0 0 0 0 0 0 0 0 0 0 0 0 0 0 1 2 2 1 0 0 0 0 0 0 0 0 0 0 0 0
0 0 0 0 0 0 0 0 0 0 0 0 0 0 0 0 0 0 0 0 0 1 2 2 1 1 0 0 0 0 0 0 0 0 0 0 0 0
0 0 0 0 0 0 0 0 0 0 0 0 0 0 0 0 0 0 0 0 0 1 2 2 1 0 0 0 0 0 0 0 0 0 0 0 0 0
0 0 0 0 0 0 0 0 0 0 0 0 0 0 0 0 0 0 0 0 0 0 1 1 0 0 0 0 0 0 0 0 0 0 0 0 0 0
0 0 0 0 0 0 0 0 0 0 0 0 0 0 0 0 0 0 0 0 0 0 0 0 0 0 0 0 0 0 0 0 0 0 0 0 0 0
0 0 0 0 0 0 0 0 0 0 0 0 0 0 0 0 0 0 0 0 0 0 0 0 0 0 0 0 0 0 0 0 0 0 0 0 0 0
0 0 0 0 0 0 0 0 0 0 0 0 0 0 0 0 0 0 0 0 0 0 0 0 0 0 0 0 0 0 0 0 0 0 0 0 0 0
Wind_Speed
3 3 2 3 2 2 2 1 1 2 2 3 2 4 4 4 10 8 6 13 14 13 12 11 11 10 10 9 9 9 9 9 9 9 9 9 10 11
3 2 2 3 2 2 1 2 2 1 2 1 2 3 4 4 10 7 6 12 16 15 14 14 13 13 12 12 11 11 11 11 11 11 10 10 10 10
4 4 4 3 3 3 2 2 2 2 2 3 2 1 3 2 5 4 4 5 8 16 17 16 16 15 14 14 13 13 13 12 12 12 12 12 11 12
5 4 4 4 4 3 3 3 2 2 1 3 2 1 2 4 4 5 5 6 6 13 19 18 17 16 16 15 15 14 14 14 13 13 13 13 13 13
5 4 4 4 4 3 3 3 3 3 2 2 3 3 2 3 3 5 6 5 7 8 13 17 17 16 16 16 16 15 15 15 14 14 14 13 13 13
3 3 3 3 3 3 3 3 3 3 3 3 3 3 3 3 3 3 4 4 5 7 5 8 13 17 17 17 17 16 16 16 15 15 14 14 14 14
2 2 2 1 1 1 2 2 2 3 3 3 4 3 3 2 2 2 4 3 4 4 3 3 4 5 8 13 16 18 17 17 16 16 15 15 15 14
1 1 1 2 1 0 1 2 2 3 3 3 4 4 4 3 2 3 2 3 3 2 2 4 3 4 5 5 10 15 17 17 16 15 15 15 15 15
3 2 2 4 5 3 2 3 3 4 4 3 4 4 4 3 4 4 3 4 4 4 4 6 5 5 5 6 8 11 13 15 15 15 15 15 15 15
4 4 4 4 6 6 4 3 2 2 2 2 2 3 4 3 3 4 5 5 6 5 5 6 6 6 7 5 8 8 10 13 14 15 15 16 16 16
6 7 6 5 8 9 5 4 4 4 4 3 3 4 5 5 4 3 4 4 5 5 3 4 4 5 5 5 6 9 9 11 13 14 15 15 16 14
5 6 9 7 8 9 6 5 4 5 6 6 4 5 5 5 5 3 3 4 4 4 3 3 4 4 4 3 3 4 5 8 11 13 14 15 14 8
3 3 4 6 6 6 5 3 3 5 5 5 4 4 3 2 2 2 2 2 4 4 4 4 4 5 5 5 5 5 5 5 5 6 10 13 14 10
3 3 2 3 4 5 4 4 6 6 4 4 3 3 3 3 3 3 3 3 4 6 6 5 5 5 6 7 6 5 5 5 5 5 5 7 9 11
4 4 4 4 5 4 4 6 6 3 3 4 4 4 4 4 4 3 4 4 5 6 6 5 5 5 5 6 7 6 6 6 5 5 5 5 5 5
5 5 7 6 5 5 4 2 2 2 3 4 4 5 5 5 5 5 5 5 5 6 5 6 5 5 5 7 7 7 6 6 5 6 6 5 5 5
7 5 2 2 2 2 3 3 4 4 5 5 5 5 5 5 5 5 5 6 6 6 6 5 6 6 6 7 7 7 7 6 6 5 6 6 5 5
6 4 5 5 6 6 6 6 6 6 6 6 5 5 6 6 6 6 6 6 7 7 7 6 6 7 7 7 6 6 6 6 6 6 7 8 8 6
4 4 5 5 6 6 6 6 6 6 5 5 5 5 5 6 6 6 6 7 7 7 7 7 7 7 9 9 7 7 8 8 8 7 7 7 8 7
5 6 6 5 6 6 6 6 6 6 5 6 6 6 6 6 6 6 6 8 8 8 8 7 7 6 7 9 10 11 11 9 7 8 8 8 8 10
6 6 6 6 5 5 5 5 5 5 6 6 6 6 6 7 7 7 7 9 8 8 8 8 8 11 9 7 8 9 8 10 11 9 9 9 10 10
6 6 5 5 5 4 5 5 6 5 6 6 7 7 7 7 8 8 7 7 7 8 9 8 9 8 7 8 10 11 12 11 11 14 15 14 10 9
5 5 5 5 5 5 5 6 7 6 7 7 7 8 8 8 8 8 8 7 7 9 9 9 8 8 8 9 10 10 13 13 10 9 9 12 15 18
Wind_Direction
240 218 239 278 270 292 312 314 305 295 255 218 184 186 177 154 161 187 183 195 201 206 212 217 221 225 229 231 234 237 240 242 245 249 252 254 254 255
243 258 229 280 277 246 260 283 286 286 295 286 218 185 169 177 174 197 203 194 203 210 215 219 222 225 228 231 234 237 239 241 242 244 246 248 248 249
233 227 219 258 302 315 279 255 255 253 267 285 273 158 152 173 159 218 224 196 206 214 218 220 222 225 227 230 232 235 237 239 241 243 245 246 246 246
228 233 224 229 222 262 300 296 284 278 271 290 298 297 208 200 195 215 239 241 229 218 216 219 222 224 227 230 232 234 235 237 239 241 243 245 246 247
228 225 227 239 237 236 244 275 292 284 239 255 271 267 248 225 214 225 244 257 266 258 219 219 223 226 228 231 233 234 236 237 238 239 242 244 245 247
244 240 236 231 231 240 251 254 271 287 286 264 266 269 260 243 217 220 248 247 253 264 253 222 222 225 230 232 234 235 236 237 238 239 240 242 244 246
259 261 266 266 243 242 266 283 283 280 280 276 271 270 271 276 252 244 253 262 257 250 262 254 231 230 232 238 240 240 237 235 235 236 237 239 241 243
334 337 317 6 352 207 274 297 299 286 292 295 295 296 301 313 319 304 300 300 287 298 317 293 282 259 245 237 235 233 233 234 234 234 236 238 240 242
27 20 1 28 17 357 322 283 264 250 243 267 286 297 307 326 327 317 309 297 278 290 301 281 276 276 272 270 259 242 235 233 232 232 234 237 240 242
46 44 54 36 12 359 339 334 332 333 289 254 266 285 301 316 306 294 288 284 272 266 258 264 268 267 275 281 285 268 247 239 237 236 236 238 240 242
58 47 46 44 20 13 6 1 357 349 354 355 313 289 286 286 282 294 289 286 284 284 280 273 280 285 281 278 280 278 266 253 248 247 246 246 246 248
74 67 54 47 35 24 15 6 360 352 343 332 315 291 273 266 248 235 270 284 290 291 310 325 314 321 302 289 304 314 298 282 268 259 255 254 254 252
58 66 57 39 28 15 1 348 330 318 310 301 295 292 290 290 280 248 248 270 290 291 313 331 313 306 289 294 297 292 287 286 282 273 263 259 256 241
35 45 49 5 348 332 324 315 316 312 297 302 312 325 334 338 336 323 299 278 262 268 277 283 280 282 287 289 291 291 291 290 287 281 276 274 265 254
18 357 324 299 302 294 265 285 303 312 327 333 342 344 340 333 325 316 309 298 288 285 290 285 281 287 286 287 291 293 296 289 283 286 286 282 277 270
360 321 297 276 281 301 308 285 296 354 354 345 342 340 338 336 334 339 334 328 317 307 304 306 302 297 293 288 288 289 286 283 286 285 284 282 277 269
329 302 308 3 0 3 5 13 12 10 6 358 350 344 341 338 337 340 335 328 321 320 321 322 317 308 293 287 286 285 287 286 286 292 296 291 282 276
335 341 19 21 16 11 7 5 9 12 3 350 346 346 342 338 335 335 333 327 321 319 318 318 320 316 310 297 284 298 304 309 311 308 303 295 291 285
343 18 28 20 13 8 4 3 360 358 351 347 345 342 338 334 331 330 329 324 320 320 318 317 315 314 311 307 306 314 312 304 299 294 290 289 289 288
24 25 20 17 14 9 3 358 351 347 351 347 341 340 338 333 329 328 327 326 323 317 313 312 314 317 313 305 301 299 293 288 292 294 294 290 285 284
25 20 19 14 12 8 1 353 349 345 348 342 341 343 336 330 325 323 320 319 315 310 310 308 304 305 297 291 289 291 296 293 286 284 288 290 290 290
20 14 11 8 10 4 359 352 343 342 346 344 341 336 332 326 319 315 314 314 310 306 305 303 303 302 298 295 293 295 299 299 291 280 268 263 270 277
18 7 1 9 15 7 359 346 341 348 353 347 340 332 325 320 315 310 307 305 304 303 303 303 304 302 299 295 293 293 296 300 300 298 289 280 270 264